Content
SEND FEEDBACK

Daily
Averages
Monthly
Summary
United States of America

PAHOA, HAWAII


Home > North America > United States > Hawaii
Elevation: 636 feet     Latitude: 19 30N     Longitude: 154 57W

WEATHER
 
SELECT A DAY
Number of Records: 230,023;   Date Range: 1/1/95 - 7/29/14
 
SHARE

PRINT THIS DATA

[ ← Previous Day ]
WEATHER ALMANAC - FEBRUARY 13, 2013
[ Next Day → ]
[ °C ]   °F
Weather ElementAverageHighLow
Temperature70 °F77 °F (12:53 pm)64 °F (11:53 pm)
Dewpoint55.5 °F60.8 °F (10:50 pm)50 °F (7:53 am)
Humidity61.4 %88 % (10:50 pm)43 % (2:53 pm)
Barometer30.09 in30.13 in (9:53 am)30.04 in (2:53 pm)
Wind Speed7.3 mph13.8 mph (6:53 am)
Wind Gust18.4 mph (6:53 am)
Weather ElementAverage
Visibility10 mi
Wind DirectionSSE (141.2 °)

Weather ElementTotal
Precipitation---
Cooling Degree Days5.5 (Base 65)
Growing Degree Days20.5 (Base 50)
Averaged from 25 records on February 13, 2013
WEATHER CONDITIONS BREAKOUT
WIND DIRECTION BREAKOUT
WEATHER BY HOUR - FEBRUARY 13, 2013
[ °C ]   °F
Local TimeTemperatureDewpointHumidityBarometerVisibilityWind DirectionWind SpeedGust SpeedPrecipitationEventsConditions
1:53 AM69.1 °F57.9 °F68 %30.11 in10.0 miNE (50°)8.1 mphOvercast
2:53 AM69.1 °F55.9 °F63 %30.09 in10.0 miNE (40°)9.2 mphOvercast
3:53 AM69.1 °F54.0 °F58 %30.08 in10.0 miVariable3.5 mphOvercast
4:53 AM69.1 °F53.1 °F57 %30.08 in10.0 miVariable3.5 mphOvercast
5:53 AM66.9 °F55.9 °F68 %30.09 in10.0 miSW (230°)4.6 mphOvercast
6:53 AM70.0 °F53.1 °F55 %30.10 in10.0 miNNE (30°)13.8 mph18.4 mphOvercast
7:53 AM70.0 °F50.0 °F49 %30.12 in10.0 miNE (40°)11.5 mphOvercast
8:53 AM72.0 °F50.0 °F46 %30.12 in10.0 miNorth (350°)6.9 mphOvercast
9:53 AM73.0 °F50.0 °F44 %30.13 in10.0 miNW (320°)4.6 mphOvercast
10:53 AM73.0 °F54.0 °F51 %30.12 in10.0 miEast (80°)9.2 mphMostly Cloudy
11:53 AM75.0 °F55.0 °F50 %30.10 in10.0 miNorth (360°)6.9 mphMostly Cloudy
12:53 PM77.0 °F57.9 °F52 %30.08 in10.0 miNNE (30°)10.4 mphMostly Cloudy
1:53 PM75.9 °F55.0 °F48 %30.06 in10.0 miNNE (30°)10.4 mphScattered Clouds
2:53 PM77.0 °F53.1 °F43 %30.04 in10.0 miNE (40°)10.4 mphScattered Clouds
3:53 PM75.0 °F52.0 °F44 %30.04 in10.0 miEast (90°)9.2 mphScattered Clouds
4:53 PM73.9 °F54.0 °F50 %30.04 in10.0 miNE (40°)9.2 mphClear
5:53 PM70.0 °F55.9 °F61 %30.04 in10.0 miNE (50°)6.9 mphClear
6:53 PM68.0 °F57.0 °F68 %30.06 in10.0 miNE (50°)3.5 mphClear
7:53 PM66.9 °F57.9 °F73 %30.07 in10.0 miSouth (190°)4.6 mphMostly Cloudy
8:53 PM66.9 °F59.0 °F76 %30.09 in10.0 miSW (230°)3.5 mphOvercast
9:53 PM66.0 °F59.0 °F78 %30.10 in10.0 miWSW (250°)5.8 mphOvercast
10:12 PM64.9 °F59.0 °F81 %30.10 in10.0 miWSW (240°)6.9 mph0.00 inRainLight Rain
10:50 PM64.4 °F60.8 °F88 %30.10 in10.0 miWNW (290°)6.9 mph0.00 inOvercast
10:53 PM64.9 °F60.1 °F84 %30.10 in10.0 miWest (270°)8.1 mph0.00 inOvercast
11:53 PM64.0 °F57.9 °F80 %30.10 in10.0 miSW (230°)5.8 mphMostly Cloudy
Hourly data recorded from PHTO, located miles away from Pahoa, Hawaii







STORIES FROM OUR PARTNERS